Regional Weather Roundup
Issued by NWS

Home | Current Version | Previous Version | Text Only | Print | Product List | Glossary On
Versions: 1 2 3 4 5 6 7 8 9 10 11 12 13 14 15 16 17 18 19 20 21 22 23 24 25 26 27 28 29 30 31 32 33 34 35 36 37 38 39 40 41 42 43 44 45 46 47 48 49 50
000
ASUS45 KBOU 122007
RWRCO

WEATHER ROUNDUP FOR COLORADO
NATIONAL WEATHER SERVICE DENVER/BOULDER CO
100 PM MST FRI FEB 12 2016

NOTE: "FAIR" INDICATES FEW OR NO CLOUDS BELOW 12000 FEET WITH NO
SIGNIFICANT WEATHER AND/OR OBSTRUCTIONS TO VISIBILITY.

COZ001>005-013-030-031-122100-
...NORTHWEST COLORADO...

CITY           SKY/WX    TMP DP  RH WIND       PRES   REMARKS
CRAIG          MIX PCPN  30  21  69 SW6       30.39F WCI  24
HAYDEN         FAIR      28  18  64 CALM      30.39F
MEEKER         FAIR      40  22  48 CALM      30.37F
MOUNT WERNER   NOT AVBL
STEAMBOAT SPGS FAIR      32  19  60 CALM      30.38F
WALDEN         FAIR      41  25  52 SE5       30.38F
$$

COZ006>008-011-122100-
...WEST CENTRAL VALLEYS...

CITY           SKY/WX    TMP DP  RH WIND       PRES   REMARKS
GRAND JUNCTION FAIR      44  26  49 E3        30.39F
MONTROSE       FAIR      47  20  34 E3        30.40F
EAGLE          SUNNY     41  18  38 CALM      30.42F
RIFLE          FAIR      40  18  41 CALM      30.40F
DELTA          FAIR      50  20  31 S3        30.39F
NUCLA          FAIR      46  23  39 CALM      30.43F
$$

COZ017>023-064>068-122100-
...SOUTHWEST COLORADO...

CITY           SKY/WX    TMP DP  RH WIND       PRES   REMARKS
DURANGO        FAIR      41  25  53 NE5       30.39F
CORTEZ         FAIR      50  23  34 S3        30.39F
PAGOSA SPRINGS FAIR      52  12  20 SW3       30.41F
TELLURIDE      FAIR      50  22  33 CALM      30.47F
WOLF CREEK PAS FAIR      41  14  33 CALM      30.60F
$$

COZ009-010-012-014-032>034-037-058>063-122100-
...CENTRAL COLORADO...

CITY           SKY/WX    TMP DP  RH WIND       PRES   REMARKS
ASPEN          FAIR      44  23  43 NW5       30.39F
BUENA VISTA    FAIR      52  19  28 SE5       30.38F
COPPER MTN     FAIR      37  21  52 W31G44    30.50F HAZE
BERTHOUD PASS  FAIR      30  19  64 NW29G46   30.48F WCI  15
COTTONWOOD PAS FAIR      52  14  22 E3        30.45F
GUNNISON       FAIR      14   7  73 CALM      30.55F
KREMMLING      FAIR      27  12  54 CALM      30.45F
LEADVILLE      FAIR      44  18  35 NW15G22   30.44F
MONARCH PASS   FAIR      34  14  44 SW17      30.64F WCI  23
SALIDA         NOT AVBL
SUNLIGHT       FAIR      45  23  42 CALM      30.53F
WILKERSON PASS FAIR      43  18  36 SW6       30.51F
$$

COZ069>075-122100-
...SAN LUIS VALLEY/SANGRE DE CRISTO MOUNTAINS...

CITY           SKY/WX    TMP DP  RH WIND       PRES   REMARKS
ALAMOSA        FAIR      49  19  30 SW5       30.41F
LA VETA PASS   FAIR      46  18  31 S8G18     30.47F
SAGUACHE       FAIR      50  18  27 S5        30.43F
$$

COZ035-036-038>040-122100-
...NORTHERN COLORADO FRONT RANGE...

CITY           SKY/WX    TMP DP  RH WIND       PRES   REMARKS
DENVER INTL AP FAIR      51  30  44 E7        30.26F
DMNS CITY PARK   N/A     54  27  35 E2G14     30.26S
AURORA         MOSUNNY   54  33  45 VRB3      30.26F
FRONT RANGE AP MOSUNNY   50  30  46 MISG      30.28F
ERIE MUNI ARPT FAIR      49  30  47 N6        30.27F
BOULDER MUN AP FAIR      50  28  43 N7        30.27F
CENTENNIAL     FAIR      58  28  32 N9        30.25F
BROOMFIELD     NOT AVBL
FORT COLLINS   FAIR      48  27  43 E7        30.30F
LONGMONT       FAIR      53  29  41 NE9       30.29F
$$

COZ041-046-047-076>085-087-088-122100-
...PIKES PEAK/PALMER DIVIDE AND SOUTHERN FOOTHILLS...

CITY           SKY/WX    TMP DP  RH WIND       PRES   REMARKS
COLO. SPRINGS  FAIR      52  25  35 E7        30.29F
A. F. ACADEMY  FAIR      54  27  35 S9        30.27F
SCHRIEVER AFB  FAIR      51  28  39 SE6       30.29F
ELLICOTT       FAIR     N/A N/A N/A S9        30.28F
FALCON         FAIR      54  25  33 MISG      30.32F
FORT CARSON    SUNNY     52  29  41 SE3       30.27F
LIMON          FAIR      50  28  42 S9        30.27F
MONUMENT HILL  FAIR      48  27  43 S6        30.31F
TRINIDAD       FAIR      66  18  15 S7        30.28F
$$

COZ042>045-048>051-090-091-122100-
...NORTHEAST COLORADO...

CITY           SKY/WX    TMP DP  RH WIND       PRES   REMARKS
GREELEY ARPT   FAIR      46  32  57 SE5       30.30F
AKRON          FAIR      43  34  70 E18       30.29F
BURLINGTON     CLOUDY    48  31  51 E14       30.31F
WRAY           CLOUDY    39  32  75 E10       30.35F
STERLING       PTSUNNY   43  34  70 NE10      30.30F
HOLYOKE        CLOUDY    36  32  87 E10       30.37F FOG
FORT MORGAN    PTSUNNY   49  30  46 E9        30.28F
$$

COZ086-089-092>099-122100-
...SOUTHEAST COLORADO...

CITY           SKY/WX    TMP DP  RH WIND       PRES   REMARKS
PUEBLO         FAIR      60  24  25 CALM      30.25F
LA JUNTA       FAIR      63  28  26 SE8       30.25F
LAMAR          FAIR      64  31  28 SE12      30.25F
SPRINGFIELD      N/A     61  26  26 S20       30.29F
$$



USA.gov is the U.S. government's official web portal to all federal, state and local government web resources and services.